Ivanka pri Dunaji, Slovakia

8:24 PM CEST on April 28, 2017 (GMT +0200)
Ivanka pri Dunaji

Weather History for 11816 - October, 2013

Change the Weather History Date:

Tuesday, October 8, 2013

  Actual Average Record
Temperature  
Mean Temperature 54 °F -  
Max Temperature 68 °F 55 °F - ()
Min Temperature 40 °F 41 °F - ()
Degree Days  
Heating Degree Days 11    
Growing Degree Days 4 (Base 50)    
Moisture  
Dew Point 43 °F    
Average Humidity 69    
Maximum Humidity 100    
Minimum Humidity 22    
Precipitation  
Precipitation 0.00 in - - ()
Sea Level Pressure  
Sea Level Pressure 30.30 in    
Wind  
Wind Speed 3 mph ()    
Max Wind Speed 11 mph    
Max Gust Speed -    
Visibility 10.3 miles    
Events Fog    
T = Trace of Precipitation, MM = Missing Value Source: Averaged Metar Reports

Daily Weather History Graph

Daily Weather History Graph

Search for Another Location

Airport or City:

Trip Planner

Search our weather history database for the weather conditions in past years. The results will help you decide how hot, cold, wet, or windy it might be!

Date:

Astronomy

Oct. 08, 2013 Rise Set
Actual Time 7:00 AM CEST 6:16 PM CEST
Civil Twilight 6:29 AM CEST 6:47 PM CEST
Nautical Twilight 5:53 AM CEST 7:23 PM CEST
Astronomical Twilight 5:16 AM CEST 7:59 PM CEST
Moon 10:52 AM CEST (10/8) 8:19 PM CEST (10/8)
Length of Visible Light 12h 18m
Length of Day
11h 15m
Waxing Crescent, 14% of the Moon is Illuminated
Oct 8
Waxing Crescent
Oct 12
First Quarter
Oct 19
Full
Oct 27
Last Quarter
Nov 3
New

Hourly Weather History & Observations

Time (CEST) Temp. Windchill Dew Point Humidity Pressure Visibility Wind Dir Wind Speed Gust Speed Precip Events Conditions
12:00 AM 47 °F - 44 °F 86% 30.36 in 7 mi Calm Calm - -   Clear
12:00 AM 48.2 °F - 44.6 °F 87% 30.33 in - Calm Calm - N/A   Clear
12:30 AM 46.4 °F - 44.6 °F 93% 30.33 in - Calm Calm - N/A   Clear
1:00 AM 46 °F - 44 °F 89% 30.36 in 9 mi Calm Calm - -   Clear
1:00 AM 46.4 °F - 44.6 °F 93% 30.33 in - Calm Calm - N/A   Clear
1:30 AM 46.4 °F - 42.8 °F 87% 30.33 in - Calm Calm - N/A   Clear
2:00 AM 45 °F - 43 °F 92% 30.36 in 12 mi Calm Calm - -   Clear
2:00 AM 46.4 °F - 42.8 °F 87% 30.33 in - Calm Calm - N/A   Clear
2:30 AM 44.6 °F - 42.8 °F 93% 30.33 in - Calm Calm - N/A   Clear
3:00 AM 44.6 °F - 42.8 °F 93% 30.33 in - Calm Calm - N/A   Clear
3:30 AM 44.6 °F - 42.8 °F 93% 30.33 in - Calm Calm - N/A   Clear
4:00 AM 44 °F - 42 °F 92% 30.35 in 9 mi Calm Calm - -   Clear
4:00 AM 44.6 °F - 42.8 °F 93% 30.33 in - ENE 1.2 mph - N/A   Clear
4:30 AM 44.6 °F 42.2 °F 42.8 °F 93% 30.33 in - NE 4.6 mph - N/A   Clear
5:00 AM 44 °F - 42 °F 91% 30.36 in 7 mi ENE 6.7 mph - -   Clear
5:00 AM 44.6 °F 40.7 °F 42.8 °F 93% 30.33 in - ENE 6.9 mph - N/A   Clear
5:30 AM 44.6 °F 40.7 °F 42.8 °F 93% 30.33 in - ENE 6.9 mph - N/A   Clear
6:00 AM 44 °F - 42 °F 88% 30.35 in 9 mi NE 4.5 mph - -   Clear
6:00 AM 44.6 °F 41.4 °F 41.0 °F 87% 30.33 in - NE 5.8 mph - N/A   Clear
6:30 AM 44.6 °F 43.1 °F 42.8 °F 93% 30.33 in - ENE 3.5 mph - N/A   Clear
7:00 AM 42.8 °F 41.1 °F 41.0 °F 93% 30.33 in - ENE 3.5 mph - N/A   Clear
7:30 AM 41.0 °F 38.0 °F 41.0 °F 100% 30.33 in 6.2 mi ENE 4.6 mph - N/A Fog Shallow Fog
8:00 AM 42 °F - 40 °F 90% 30.36 in 6 mi NE 4.5 mph - - Fog Patches of Fog
8:00 AM 42.8 °F 40.1 °F 41.0 °F 93% 30.33 in 6.2 mi ENE 4.6 mph - N/A Fog Shallow Fog
8:30 AM 46.4 °F 44.3 °F 44.6 °F 93% 30.33 in 6.2 mi ENE 4.6 mph - N/A Fog Shallow Fog
9:00 AM 49 °F - 45 °F 81% 30.36 in 7 mi ENE 4.5 mph - -   Scattered Clouds
9:00 AM 48.2 °F - 44.6 °F 87% 30.33 in - ENE 4.6 mph - N/A   Clear
9:30 AM 51.8 °F - 44.6 °F 76% 30.33 in - NE 5.8 mph - N/A   Clear
10:00 AM 54 °F - 46 °F 65% 30.35 in 7 mi East 6.7 mph - -   Scattered Clouds
10:00 AM 53.6 °F - 44.6 °F 72% 30.33 in - East 5.8 mph - N/A   Clear
10:30 AM 55.4 °F - 44.6 °F 67% 30.33 in - East 5.8 mph - N/A   Clear
11:00 AM 57 °F - 45 °F 55% 30.35 in 9 mi East 4.5 mph - -   Scattered Clouds
11:00 AM 57.2 °F - 46.4 °F 67% 30.33 in - East 5.8 mph - N/A   Clear
11:30 AM 59.0 °F - 42.8 °F 55% 30.33 in - SE 6.9 mph - N/A   Clear
12:00 PM 62 °F - 42 °F 37% 30.33 in 12 mi SE 6.7 mph - -   Scattered Clouds
12:00 PM 62.6 °F - 42.8 °F 48% 30.33 in - SE 6.9 mph - N/A   Clear
12:30 PM 64.4 °F - 41.0 °F 42% 30.30 in - SE 8.1 mph - N/A   Clear
1:00 PM 65 °F - 39 °F 27% 30.30 in 12 mi SE 8.9 mph - -   Scattered Clouds
1:00 PM 66.2 °F - 39.2 °F 37% 30.30 in - SSE 10.4 mph - N/A   Clear
1:30 PM 66.2 °F - 37.4 °F 35% 30.27 in - SE 10.4 mph - N/A   Clear
2:00 PM 67 °F - 38 °F 23% 30.28 in 16 mi SE 8.9 mph - -   Scattered Clouds
2:00 PM 66.2 °F - 37.4 °F 35% 30.27 in - SSE 9.2 mph - N/A   Clear
2:30 PM 68.0 °F - 37.4 °F 33% 30.27 in - South 10.4 mph - N/A   Clear
3:00 PM 68 °F - 38 °F 22% 30.27 in 16 mi SSE 8.9 mph - -   Scattered Clouds
3:00 PM 68.0 °F - 37.4 °F 33% 30.27 in - SSE 9.2 mph - N/A   Clear
3:30 PM 68.0 °F - 39.2 °F 35% 30.24 in - SSE 10.4 mph - N/A   Clear
4:00 PM 67 °F - 41 °F 27% 30.25 in 16 mi SSE 8.9 mph - -   Scattered Clouds
4:00 PM 68.0 °F - 41.0 °F 37% 30.24 in - South 9.2 mph - N/A   Clear
4:30 PM 66.2 °F - 42.8 °F 43% 30.24 in - South 9.2 mph - N/A   Clear
5:00 PM 66 °F - 43 °F 32% 30.25 in 16 mi SSE 11.2 mph - -   Scattered Clouds
5:00 PM 66.2 °F - 42.8 °F 43% 30.24 in - South 10.4 mph - N/A   Clear
5:30 PM 64.4 °F - 44.6 °F 49% 30.24 in - SSE 5.8 mph - N/A   Clear
6:00 PM 62 °F - 44 °F 41% 30.25 in 16 mi SSE 4.5 mph - -   Scattered Clouds
6:00 PM 62.6 °F - 44.6 °F 52% 30.24 in - SSE 4.6 mph - N/A   Clear
6:30 PM 59.0 °F - 44.6 °F 59% 30.24 in - ESE 3.5 mph - N/A   Clear
7:00 PM 57 °F - 44 °F 53% 30.26 in 9 mi ESE 4.5 mph - -   Scattered Clouds
7:00 PM 57.2 °F - 44.6 °F 63% 30.24 in - ESE 4.6 mph - N/A   Clear
7:30 PM 53.6 °F - 44.6 °F 72% 30.24 in - ESE 3.5 mph - N/A   Clear
8:00 PM 55 °F - 45 °F 60% 30.26 in 12 mi Calm Calm - -   Clear
8:00 PM 55.4 °F - 44.6 °F 67% 30.24 in - Calm Calm - N/A   Clear
8:30 PM 53.6 °F - 46.4 °F 77% 30.24 in - NE 2.3 mph - N/A   Clear
9:00 PM 53 °F - 46 °F 70% 30.26 in 12 mi Calm Calm - -   Clear
9:00 PM 53.6 °F - 46.4 °F 77% 30.24 in - Variable 1.2 mph - N/A   Clear
9:30 PM 53.6 °F - 46.4 °F 77% 30.24 in - North 2.3 mph - N/A   Clear
10:00 PM 50 °F - 45 °F 76% 30.26 in 12 mi NNE 4.5 mph - -   Clear
10:00 PM 50.0 °F - 44.6 °F 82% 30.24 in - NE 3.5 mph - N/A   Clear
10:30 PM 50.0 °F - 44.6 °F 82% 30.24 in - NE 3.5 mph - N/A   Clear
11:00 PM 49 °F - 44 °F 77% 30.26 in 9 mi NNE 2.2 mph - -   Clear
11:00 PM 48.2 °F - 44.6 °F 87% 30.24 in - NNE 2.3 mph - N/A   Clear
11:30 PM 48.2 °F - 44.6 °F 87% 30.24 in - NNE 2.3 mph - N/A   Clear